Time,TemperatureF,DewpointF,PressureIn,WindDirection,WindDirectionDegrees,WindSpeedMPH,WindSpeedGustMPH,Humidity,HourlyPrecipIn,Conditions,Clouds,dailyrainin,SoftwareType,DateUTC
2014-01-14 00:00:00,33.4,29.1,29.60,South,178,16.0,16.0,84,0.00,,,0.00,Wunderground v.1.15,2014-01-14 06:00:00,
2014-01-14 00:05:00,33.2,28.9,29.60,South,172,16.0,16.0,84,0.00,,,0.00,Wunderground v.1.15,2014-01-14 06:05:00,
2014-01-14 00:10:00,33.0,28.7,29.60,South,177,15.0,17.0,84,0.00,,,0.00,Wunderground v.1.15,2014-01-14 06:10:00,
2014-01-14 00:15:00,32.7,28.7,29.60,South,179,15.0,17.0,85,0.00,,,0.00,Wunderground v.1.15,2014-01-14 06:15:00,
2014-01-14 00:25:00,33.0,28.7,29.60,South,190,16.0,17.0,84,0.00,,,0.00,Wunderground v.1.15,2014-01-14 06:25:00,
2014-01-14 00:30:00,32.6,28.6,29.59,South,173,16.0,16.0,85,0.00,,,0.00,Wunderground v.1.15,2014-01-14 06:30:00,
2014-01-14 00:35:00,32.4,28.4,29.59,South,184,15.0,16.0,85,0.00,,,0.00,Wunderground v.1.15,2014-01-14 06:35:00,
2014-01-14 00:40:00,32.0,28.0,29.59,South,177,14.0,17.0,85,0.00,,,0.00,Wunderground v.1.15,2014-01-14 06:40:00,
2014-01-14 00:45:00,32.1,28.1,29.59,South,179,14.0,17.0,85,0.00,,,0.00,Wunderground v.1.15,2014-01-14 06:45:00,
2014-01-14 00:50:00,32.4,28.4,29.58,South,183,15.0,15.0,85,0.00,,,0.00,Wunderground v.1.15,2014-01-14 06:50:00,
2014-01-14 01:00:00,32.7,28.4,29.58,South,190,15.0,15.0,84,0.00,,,0.00,Wunderground v.1.15,2014-01-14 07:00:00,
2014-01-14 01:05:00,32.6,28.3,29.58,SSW,193,14.0,15.0,84,0.00,,,0.00,Wunderground v.1.15,2014-01-14 07:05:00,
2014-01-14 01:10:00,32.3,28.0,29.58,South,191,13.0,13.0,84,0.00,,,0.00,Wunderground v.1.15,2014-01-14 07:10:00,
2014-01-14 01:15:00,32.3,28.3,29.58,SSW,200,13.0,14.0,85,0.00,,,0.00,Wunderground v.1.15,2014-01-14 07:15:00,
2014-01-14 01:20:00,32.0,28.0,29.58,South,185,13.0,14.0,85,0.00,,,0.00,Wunderground v.1.15,2014-01-14 07:20:00,
2014-01-14 01:30:00,32.0,28.0,29.57,South,188,14.0,14.0,85,0.00,,,0.00,Wunderground v.1.15,2014-01-14 07:30:00,
2014-01-14 01:35:00,32.2,28.2,29.57,SSW,195,14.0,14.0,85,0.00,,,0.00,Wunderground v.1.15,2014-01-14 07:35:00,
2014-01-14 01:40:00,32.2,28.2,29.56,SSW,195,13.0,13.0,85,0.00,,,0.00,Wunderground v.1.15,2014-01-14 07:40:00,
2014-01-14 01:45:00,32.2,28.5,29.56,South,190,14.0,15.0,86,0.00,,,0.00,Wunderground v.1.15,2014-01-14 07:45:00,
2014-01-14 01:50:00,32.4,28.7,29.56,SSW,200,14.0,15.0,86,0.00,,,0.00,Wunderground v.1.15,2014-01-14 07:50:00,
2014-01-14 01:55:00,32.5,28.5,29.56,SSW,198,14.0,16.0,85,0.00,,,0.00,Wunderground v.1.15,2014-01-14 07:55:00,
2014-01-14 02:05:00,32.7,29.0,29.55,SSW,199,15.0,17.0,86,0.00,,,0.00,Wunderground v.1.15,2014-01-14 08:05:00,
2014-01-14 02:10:00,32.8,29.1,29.55,South,191,16.0,16.0,86,0.00,,,0.00,Wunderground v.1.15,2014-01-14 08:10:00,
2014-01-14 02:15:00,32.9,28.9,29.55,South,187,16.0,17.0,85,0.00,,,0.00,Wunderground v.1.15,2014-01-14 08:15:00,
2014-01-14 02:20:00,33.1,29.1,29.54,South,185,17.0,19.0,85,0.00,,,0.00,Wunderground v.1.15,2014-01-14 08:20:00,
2014-01-14 02:25:00,33.2,29.2,29.54,South,191,16.0,19.0,85,0.00,,,0.00,Wunderground v.1.15,2014-01-14 08:25:00,
2014-01-14 02:35:00,33.3,29.6,29.53,South,178,16.0,18.0,86,0.00,,,0.00,Wunderground v.1.15,2014-01-14 08:35:00,
2014-01-14 02:40:00,33.5,29.8,29.54,SSW,204,17.0,19.0,86,0.00,,,0.00,Wunderground v.1.15,2014-01-14 08:40:00,
2014-01-14 02:45:00,33.6,29.9,29.54,SSW,204,18.0,19.0,86,0.00,,,0.00,Wunderground v.1.15,2014-01-14 08:45:00,
2014-01-14 02:50:00,33.5,29.8,29.54,SSW,197,17.0,17.0,86,0.00,,,0.00,Wunderground v.1.15,2014-01-14 08:50:00,
2014-01-14 02:55:00,33.4,29.9,29.53,SSW,195,16.0,17.0,87,0.00,,,0.00,Wunderground v.1.15,2014-01-14 08:55:00,
2014-01-14 03:00:00,33.4,29.9,29.52,South,179,16.0,19.0,87,0.00,,,0.00,Wunderground v.1.15,2014-01-14 09:00:00,
2014-01-14 03:10:00,33.5,29.8,29.53,South,185,17.0,17.0,86,0.00,,,0.00,Wunderground v.1.15,2014-01-14 09:10:00,
2014-01-14 03:15:00,33.5,30.0,29.53,SSW,202,17.0,17.0,87,0.00,,,0.00,Wunderground v.1.15,2014-01-14 09:15:00,
2014-01-14 03:20:00,33.5,30.0,29.52,SSW,202,16.0,17.0,87,0.00,,,0.00,Wunderground v.1.15,2014-01-14 09:20:00,
2014-01-14 03:25:00,33.5,30.3,29.52,SSW,200,15.0,17.0,88,0.00,,,0.00,Wunderground v.1.15,2014-01-14 09:25:00,
2014-01-14 03:30:00,33.5,30.3,29.52,SW,221,15.0,18.0,88,0.00,,,0.00,Wunderground v.1.15,2014-01-14 09:30:00,
2014-01-14 03:40:00,33.5,30.6,29.52,SW,215,17.0,17.0,89,0.00,,,0.01,Wunderground v.1.15,2014-01-14 09:40:00,
2014-01-14 03:45:00,33.5,30.9,29.52,SSW,210,16.0,17.0,90,0.10,,,0.02,Wunderground v.1.15,2014-01-14 09:45:00,
2014-01-14 03:50:00,33.5,30.9,29.51,SSW,203,15.0,17.0,90,0.06,,,0.02,Wunderground v.1.15,2014-01-14 09:50:00,
2014-01-14 03:55:00,33.7,31.1,29.51,SW,223,15.0,17.0,90,0.06,,,0.03,Wunderground v.1.15,2014-01-14 09:55:00,
2014-01-14 04:00:00,33.7,31.1,29.51,SSW,202,15.0,15.0,90,0.06,,,0.03,Wunderground v.1.15,2014-01-14 10:00:00,
2014-01-14 04:05:00,33.9,31.6,29.51,SSW,213,15.0,16.0,91,0.04,,,0.03,Wunderground v.1.15,2014-01-14 10:05:00,
2014-01-14 04:15:00,34.2,31.6,29.52,SW,216,14.0,24.0,90,0.00,,,0.03,Wunderground v.1.15,2014-01-14 10:15:00,
2014-01-14 04:20:00,34.4,31.8,29.52,SW,230,13.0,24.0,90,0.00,,,0.03,Wunderground v.1.15,2014-01-14 10:20:00,
2014-01-14 04:25:00,34.4,32.0,29.52,SW,229,13.0,24.0,91,0.00,,,0.03,Wunderground v.1.15,2014-01-14 10:25:00,
2014-01-14 04:30:00,34.5,32.1,29.52,SW,220,12.0,24.0,91,0.00,,,0.03,Wunderground v.1.15,2014-01-14 10:30:00,
2014-01-14 04:35:00,34.8,32.4,29.52,SW,229,13.0,24.0,91,0.00,,,0.03,Wunderground v.1.15,2014-01-14 10:35:00,
2014-01-14 04:45:00,34.8,32.4,29.52,SW,231,15.0,24.0,91,0.00,,,0.04,Wunderground v.1.15,2014-01-14 10:45:00,
2014-01-14 04:50:00,34.7,32.3,29.52,SW,235,14.0,24.0,91,0.00,,,0.04,Wunderground v.1.15,2014-01-14 10:50:00,
2014-01-14 04:55:00,34.9,32.8,29.52,WSW,245,14.0,24.0,92,0.00,,,0.04,Wunderground v.1.15,2014-01-14 10:55:00,
2014-01-14 05:00:00,35.0,32.9,29.53,WSW,245,15.0,15.0,92,0.00,,,0.04,Wunderground v.1.15,2014-01-14 11:00:00,
2014-01-14 05:05:00,35.3,33.2,29.53,West,263,16.0,16.0,92,0.00,,,0.04,Wunderground v.1.15,2014-01-14 11:05:00,
2014-01-14 05:10:00,35.5,33.4,29.53,West,263,16.0,24.0,92,0.00,,,0.05,Wunderground v.1.15,2014-01-14 11:10:00,
2014-01-14 05:20:00,36.0,33.9,29.54,West,279,17.0,24.0,92,0.00,,,0.05,Wunderground v.1.15,2014-01-14 11:20:00,
2014-01-14 05:25:00,36.0,33.6,29.54,West,276,18.0,24.0,91,0.00,,,0.05,Wunderground v.1.15,2014-01-14 11:25:00,
2014-01-14 05:30:00,36.1,33.7,29.55,West,271,19.0,24.0,91,0.00,,,0.05,Wunderground v.1.15,2014-01-14 11:30:00,
2014-01-14 05:35:00,36.1,33.7,29.55,WNW,290,20.0,24.0,91,0.00,,,0.05,Wunderground v.1.15,2014-01-14 11:35:00,
2014-01-14 05:40:00,35.9,33.5,29.55,WNW,289,20.0,20.0,91,0.00,,,0.05,Wunderground v.1.15,2014-01-14 11:40:00,
2014-01-14 05:50:00,35.8,33.2,29.56,WNW,303,22.0,22.0,90,0.00,,,0.05,Wunderground v.1.15,2014-01-14 11:50:00,
2014-01-14 05:55:00,35.7,33.1,29.56,NW,312,21.0,24.0,90,0.00,,,0.05,Wunderground v.1.15,2014-01-14 11:55:00,
2014-01-14 06:00:00,35.7,32.8,29.56,NW,310,22.0,24.0,89,0.00,,,0.05,Wunderground v.1.15,2014-01-14 12:00:00,
2014-01-14 06:05:00,35.8,32.9,29.57,NW,304,23.0,24.0,89,0.00,,,0.05,Wunderground v.1.15,2014-01-14 12:05:00,
2014-01-14 06:10:00,35.8,32.6,29.57,WNW,302,24.0,25.0,88,0.00,,,0.05,Wunderground v.1.15,2014-01-14 12:10:00,
2014-01-14 06:15:00,35.9,32.7,29.57,WNW,303,24.0,30.0,88,0.00,,,0.05,Wunderground v.1.15,2014-01-14 12:15:00,
2014-01-14 06:25:00,35.5,31.7,29.58,WNW,296,30.0,35.0,86,0.00,,,0.05,Wunderground v.1.15,2014-01-14 12:25:00,
2014-01-14 06:30:00,35.2,31.4,29.59,NW,305,31.0,31.0,86,0.00,,,0.05,Wunderground v.1.15,2014-01-14 12:30:00,
2014-01-14 06:35:00,34.7,30.9,29.59,WNW,303,30.0,33.0,86,0.00,,,0.05,Wunderground v.1.15,2014-01-14 12:35:00,
2014-01-14 06:40:00,34.3,30.3,29.60,WNW,303,30.0,30.0,85,0.00,,,0.05,Wunderground v.1.15,2014-01-14 12:40:00,
2014-01-14 06:45:00,33.9,29.6,29.61,NW,306,31.0,32.0,84,0.00,,,0.05,Wunderground v.1.15,2014-01-14 12:45:00,
2014-01-14 06:55:00,32.9,28.6,29.62,WNW,292,32.0,36.0,84,0.00,,,0.05,Wunderground v.1.15,2014-01-14 12:55:00,
2014-01-14 07:00:00,32.7,28.4,29.63,WNW,294,31.0,31.0,84,0.00,,,0.05,Wunderground v.1.15,2014-01-14 13:00:00,
2014-01-14 07:05:00,32.5,27.9,29.63,WNW,297,31.0,36.0,83,0.00,,,0.05,Wunderground v.1.15,2014-01-14 13:05:00,
2014-01-14 07:10:00,32.1,27.2,29.64,NW,314,32.0,32.0,82,0.00,,,0.05,Wunderground v.1.15,2014-01-14 13:10:00,
2014-01-14 07:15:00,31.8,27.5,29.64,NW,312,30.0,32.0,84,0.00,,,0.05,Wunderground v.1.15,2014-01-14 13:15:00,
2014-01-14 07:20:00,31.6,27.6,29.65,NW,310,26.0,26.0,85,0.00,,,0.05,Wunderground v.1.15,2014-01-14 13:20:00,
2014-01-14 07:30:00,31.5,26.9,29.65,NW,308,27.0,38.0,83,0.00,,,0.05,Wunderground v.1.15,2014-01-14 13:30:00,
2014-01-14 07:35:00,31.0,26.1,29.65,WNW,284,33.0,38.0,82,0.00,,,0.05,Wunderground v.1.15,2014-01-14 13:35:00,
2014-01-14 07:40:00,30.6,25.8,29.66,WNW,285,35.0,36.0,82,0.00,,,0.05,Wunderground v.1.15,2014-01-14 13:40:00,
2014-01-14 07:45:00,30.3,25.5,29.66,WNW,296,34.0,36.0,82,0.00,,,0.05,Wunderground v.1.15,2014-01-14 13:45:00,
2014-01-14 07:55:00,30.2,25.4,29.67,NW,306,33.0,33.0,82,0.00,,,0.05,Wunderground v.1.15,2014-01-14 13:55:00,
2014-01-14 08:00:00,29.9,25.1,29.67,NW,310,33.0,33.0,82,0.00,,,0.05,Wunderground v.1.15,2014-01-14 14:00:00,
2014-01-14 08:05:00,29.6,24.8,29.67,WNW,295,33.0,33.0,82,0.00,,,0.05,Wunderground v.1.15,2014-01-14 14:05:00,
2014-01-14 08:10:00,29.5,24.7,29.67,WNW,300,31.0,31.0,82,0.00,,,0.05,Wunderground v.1.15,2014-01-14 14:10:00,
2014-01-14 08:15:00,29.4,24.6,29.68,NW,306,30.0,31.0,82,0.00,,,0.05,Wunderground v.1.15,2014-01-14 14:15:00,
2014-01-14 08:20:00,29.3,24.8,29.68,WNW,292,29.0,29.0,83,0.00,,,0.05,Wunderground v.1.15,2014-01-14 14:20:00,
2014-01-14 08:25:00,29.3,24.2,29.69,NW,308,29.0,35.0,81,0.00,,,0.05,Wunderground v.1.15,2014-01-14 14:25:00,
2014-01-14 08:35:00,29.1,24.0,29.69,NW,305,34.0,36.0,81,0.00,,,0.05,Wunderground v.1.15,2014-01-14 14:35:00,
2014-01-14 08:40:00,29.0,23.9,29.70,NW,314,33.0,36.0,81,0.00,,,0.05,Wunderground v.1.15,2014-01-14 14:40:00,
2014-01-14 08:45:00,28.8,24.3,29.71,NW,316,32.0,36.0,83,0.00,,,0.05,Wunderground v.1.15,2014-01-14 14:45:00,
2014-01-14 08:50:00,28.8,24.3,29.71,NW,308,29.0,36.0,83,0.00,,,0.05,Wunderground v.1.15,2014-01-14 14:50:00,
2014-01-14 08:55:00,28.7,23.9,29.72,WNW,298,30.0,36.0,82,0.00,,,0.05,Wunderground v.1.15,2014-01-14 14:55:00,
2014-01-14 09:05:00,28.5,23.7,29.73,WNW,295,30.0,32.0,82,0.00,,,0.05,Wunderground v.1.15,2014-01-14 15:05:00,
2014-01-14 09:10:00,28.5,23.7,29.73,NW,318,29.0,29.0,82,0.00,,,0.05,Wunderground v.1.15,2014-01-14 15:10:00,
2014-01-14 09:15:00,28.6,23.8,29.73,WNW,288,30.0,33.0,82,0.00,,,0.05,Wunderground v.1.15,2014-01-14 15:15:00,
2014-01-14 09:20:00,28.6,23.8,29.74,WNW,303,29.0,29.0,82,0.00,,,0.05,Wunderground v.1.15,2014-01-14 15:20:00,
2014-01-14 09:25:00,28.6,24.1,29.74,WNW,303,27.0,29.0,83,0.00,,,0.05,Wunderground v.1.15,2014-01-14 15:25:00,
2014-01-14 09:30:00,28.3,23.8,29.74,WNW,290,28.0,32.0,83,0.00,,,0.05,Wunderground v.1.15,2014-01-14 15:30:00,
2014-01-14 09:40:00,27.7,23.5,29.76,WNW,297,30.0,30.0,84,0.00,,,0.05,Wunderground v.1.15,2014-01-14 15:40:00,
2014-01-14 09:45:00,27.5,23.3,29.76,NW,306,28.0,30.0,84,0.00,,,0.05,Wunderground v.1.15,2014-01-14 15:45:00,
2014-01-14 09:50:00,27.3,22.8,29.76,NW,316,29.0,32.0,83,0.00,,,0.05,Wunderground v.1.15,2014-01-14 15:50:00,
2014-01-14 09:55:00,27.1,22.6,29.76,WNW,303,32.0,32.0,83,0.00,,,0.05,Wunderground v.1.15,2014-01-14 15:55:00,
2014-01-14 10:00:00,27.1,22.6,29.76,WNW,289,32.0,32.0,83,0.00,,,0.05,Wunderground v.1.15,2014-01-14 16:00:00,
2014-01-14 10:05:00,27.0,22.5,29.77,WNW,299,31.0,32.0,83,0.00,,,0.05,Wunderground v.1.15,2014-01-14 16:05:00,
2014-01-14 10:10:00,27.0,22.5,29.78,NW,306,31.0,33.0,83,0.00,,,0.05,Wunderground v.1.15,2014-01-14 16:10:00,
2014-01-14 10:15:00,26.9,22.7,29.78,NW,304,30.0,33.0,84,0.00,,,0.05,Wunderground v.1.15,2014-01-14 16:15:00,
2014-01-14 10:20:00,26.8,22.3,29.78,NW,304,28.0,28.0,83,0.00,,,0.05,Wunderground v.1.15,2014-01-14 16:20:00,
2014-01-14 10:29:00,26.6,22.1,29.78,NW,310,28.0,37.0,83,0.00,,,0.05,Wunderground v.1.15,2014-01-14 16:29:00,
2014-01-14 10:34:00,26.5,22.3,29.78,WNW,289,30.0,39.0,84,0.00,,,0.05,Wunderground v.1.15,2014-01-14 16:34:00,
2014-01-14 10:40:00,26.3,21.3,29.79,WNW,291,34.0,37.0,81,0.00,,,0.05,Wunderground v.1.15,2014-01-14 16:40:00,
2014-01-14 10:45:00,26.5,21.7,29.79,WNW,301,35.0,37.0,82,0.00,,,0.05,Wunderground v.1.15,2014-01-14 16:45:00,
2014-01-14 10:50:00,26.6,22.1,29.79,WNW,282,31.0,31.0,83,0.00,,,0.05,Wunderground v.1.15,2014-01-14 16:50:00,
2014-01-14 10:55:00,26.5,21.7,29.79,WNW,289,29.0,31.0,82,0.00,,,0.05,Wunderground v.1.15,2014-01-14 16:55:00,
2014-01-14 11:00:00,26.6,21.8,29.79,NW,312,31.0,33.0,82,0.00,,,0.05,Wunderground v.1.15,2014-01-14 17:00:00,
2014-01-14 11:05:00,26.6,21.8,29.80,NW,304,31.0,33.0,82,0.00,,,0.05,Wunderground v.1.15,2014-01-14 17:05:00,
2014-01-14 11:15:00,26.6,21.6,29.79,WNW,292,31.0,31.0,81,0.00,,,0.05,Wunderground v.1.15,2014-01-14 17:15:00,
2014-01-14 11:20:00,26.7,21.7,29.80,WNW,299,30.0,30.0,81,0.00,,,0.05,Wunderground v.1.15,2014-01-14 17:20:00,
2014-01-14 11:25:00,26.9,21.8,29.80,WNW,298,29.0,30.0,81,0.00,,,0.05,Wunderground v.1.15,2014-01-14 17:25:00,
2014-01-14 11:30:00,26.8,21.5,29.80,WNW,299,29.0,36.0,80,0.00,,,0.05,Wunderground v.1.15,2014-01-14 17:30:00,
2014-01-14 11:35:00,26.7,21.7,29.80,WNW,290,31.0,36.0,81,0.00,,,0.05,Wunderground v.1.15,2014-01-14 17:35:00,
2014-01-14 11:45:00,26.5,21.2,29.80,WNW,296,31.0,33.0,80,0.00,,,0.05,Wunderground v.1.15,2014-01-14 17:45:00,
2014-01-14 11:50:00,26.5,21.5,29.80,WNW,298,31.0,31.0,81,0.00,,,0.05,Wunderground v.1.15,2014-01-14 17:50:00,
2014-01-14 11:55:00,26.4,21.1,29.80,WNW,288,32.0,32.0,80,0.00,,,0.05,Wunderground v.1.15,2014-01-14 17:55:00,
2014-01-14 12:00:00,26.3,21.3,29.80,WNW,295,31.0,31.0,81,0.00,,,0.05,Wunderground v.1.15,2014-01-14 18:00:00,
2014-01-14 12:05:00,26.3,21.0,29.80,NW,304,30.0,35.0,80,0.00,,,0.05,Wunderground v.1.15,2014-01-14 18:05:00,
2014-01-14 12:10:00,26.2,21.2,29.80,NW,305,31.0,34.0,81,0.00,,,0.05,Wunderground v.1.15,2014-01-14 18:10:00,
2014-01-14 12:20:00,26.1,21.4,29.81,NW,320,30.0,31.0,82,0.00,,,0.05,Wunderground v.1.15,2014-01-14 18:20:00,
2014-01-14 12:25:00,26.0,21.3,29.81,NW,307,30.0,31.0,82,0.00,,,0.05,Wunderground v.1.15,2014-01-14 18:25:00,
2014-01-14 12:30:00,25.9,21.4,29.81,NW,306,31.0,31.0,83,0.00,,,0.05,Wunderground v.1.15,2014-01-14 18:30:00,
2014-01-14 12:35:00,25.8,21.3,29.81,WNW,298,29.0,34.0,83,0.00,,,0.05,Wunderground v.1.15,2014-01-14 18:35:00,
2014-01-14 12:40:00,25.6,20.9,29.81,WNW,297,29.0,29.0,82,0.00,,,0.05,Wunderground v.1.15,2014-01-14 18:40:00,
2014-01-14 12:50:00,25.4,21.2,29.81,WNW,299,27.0,32.0,84,0.00,,,0.05,Wunderground v.1.15,2014-01-14 18:50:00,
2014-01-14 12:55:00,25.3,20.9,29.82,WNW,292,30.0,32.0,83,0.00,,,0.05,Wunderground v.1.15,2014-01-14 18:55:00,
2014-01-14 13:00:00,25.2,21.0,29.82,WNW,297,30.0,30.0,84,0.00,,,0.05,Wunderground v.1.15,2014-01-14 19:00:00,
2014-01-14 13:05:00,25.3,20.6,29.82,NW,305,29.0,30.0,82,0.00,,,0.05,Wunderground v.1.15,2014-01-14 19:05:00,
2014-01-14 13:10:00,25.5,20.8,29.83,NW,304,28.0,28.0,82,0.00,,,0.05,Wunderground v.1.15,2014-01-14 19:10:00,
2014-01-14 13:15:00,25.7,20.7,29.83,NW,306,27.0,30.0,81,0.00,,,0.05,Wunderground v.1.15,2014-01-14 19:15:00,
2014-01-14 13:25:00,25.3,21.1,29.83,WNW,303,28.0,29.0,84,0.00,,,0.05,Wunderground v.1.15,2014-01-14 19:25:00,
2014-01-14 13:30:00,25.6,21.2,29.84,NW,308,27.0,27.0,83,0.00,,,0.05,Wunderground v.1.15,2014-01-14 19:30:00,
2014-01-14 13:35:00,25.5,21.3,29.84,NW,304,26.0,27.0,84,0.00,,,0.05,Wunderground v.1.15,2014-01-14 19:35:00,
2014-01-14 13:40:00,25.1,20.4,29.84,WNW,299,27.0,27.0,82,0.00,,,0.05,Wunderground v.1.15,2014-01-14 19:40:00,
2014-01-14 13:45:00,25.1,20.4,29.84,NW,306,29.0,31.0,82,0.00,,,0.05,Wunderground v.1.15,2014-01-14 19:45:00,
2014-01-14 13:55:00,25.0,20.8,29.85,WNW,297,26.0,28.0,84,0.00,,,0.05,Wunderground v.1.15,2014-01-14 19:55:00,
2014-01-14 14:00:00,24.9,20.2,29.85,WNW,289,25.0,26.0,82,0.00,,,0.05,Wunderground v.1.15,2014-01-14 20:00:00,
2014-01-14 14:05:00,24.8,19.8,29.86,NW,304,27.0,27.0,81,0.00,,,0.05,Wunderground v.1.15,2014-01-14 20:05:00,
2014-01-14 14:10:00,24.9,20.2,29.86,WNW,293,26.0,26.0,82,0.00,,,0.05,Wunderground v.1.15,2014-01-14 20:10:00,
2014-01-14 14:15:00,24.8,20.1,29.86,WNW,301,24.0,26.0,82,0.00,,,0.05,Wunderground v.1.15,2014-01-14 20:15:00,
2014-01-14 14:20:00,24.7,20.0,29.87,WNW,291,24.0,24.0,82,0.00,,,0.05,Wunderground v.1.15,2014-01-14 20:20:00,
2014-01-14 14:29:00,24.5,19.2,29.87,WNW,303,26.0,27.0,80,0.00,,,0.05,Wunderground v.1.15,2014-01-14 20:29:00,
2014-01-14 14:35:00,24.3,19.0,29.87,NW,306,26.0,28.0,80,0.00,,,0.05,Wunderground v.1.15,2014-01-14 20:35:00,
2014-01-14 14:40:00,24.3,19.9,29.87,WNW,300,26.0,28.0,83,0.00,,,0.05,Wunderground v.1.15,2014-01-14 20:40:00,
2014-01-14 14:45:00,24.2,20.3,29.88,WNW,293,26.0,29.0,85,0.00,,,0.05,Wunderground v.1.15,2014-01-14 20:45:00,
2014-01-14 14:50:00,24.3,20.4,29.88,WNW,303,25.0,30.0,85,0.00,,,0.05,Wunderground v.1.15,2014-01-14 20:50:00,
2014-01-14 14:55:00,24.2,20.3,29.88,NW,304,24.0,30.0,85,0.00,,,0.05,Wunderground v.1.15,2014-01-14 20:55:00,
2014-01-14 15:00:00,24.1,19.1,29.89,NW,306,25.0,25.0,81,0.00,,,0.05,Wunderground v.1.15,2014-01-14 21:00:00,
2014-01-14 15:09:00,24.0,19.6,29.90,WNW,301,24.0,24.0,83,0.00,,,0.05,Wunderground v.1.15,2014-01-14 21:09:00,
2014-01-14 15:14:00,24.0,19.3,29.90,WNW,297,25.0,25.0,82,0.00,,,0.05,Wunderground v.1.15,2014-01-14 21:14:00,
2014-01-14 15:19:00,24.0,19.3,29.91,WNW,301,25.0,25.0,82,0.00,,,0.05,Wunderground v.1.15,2014-01-14 21:19:00,
2014-01-14 15:24:00,24.0,19.6,29.91,NW,315,24.0,25.0,83,0.00,,,0.05,Wunderground v.1.15,2014-01-14 21:24:00,
2014-01-14 15:30:00,23.9,19.5,29.92,NW,304,23.0,24.0,83,0.00,,,0.05,Wunderground v.1.15,2014-01-14 21:30:00,
2014-01-14 15:35:00,23.8,19.4,29.92,WNW,303,23.0,24.0,83,0.00,,,0.05,Wunderground v.1.15,2014-01-14 21:35:00,
2014-01-14 15:40:00,23.6,18.9,29.92,WNW,301,23.0,29.0,82,0.00,,,0.05,Wunderground v.1.15,2014-01-14 21:40:00,
2014-01-14 15:45:00,23.4,18.4,29.92,WNW,301,26.0,29.0,81,0.00,,,0.05,Wunderground v.1.15,2014-01-14 21:45:00,
2014-01-14 15:50:00,23.3,18.3,29.93,NW,309,27.0,27.0,81,0.00,,,0.05,Wunderground v.1.15,2014-01-14 21:50:00,
2014-01-14 15:55:00,23.2,18.2,29.93,NNW,329,26.0,27.0,81,0.00,,,0.05,Wunderground v.1.15,2014-01-14 21:55:00,
2014-01-14 16:05:00,23.1,18.1,29.94,NW,308,26.0,29.0,81,0.00,,,0.05,Wunderground v.1.15,2014-01-14 22:05:00,
2014-01-14 16:10:00,23.0,18.6,29.94,NW,308,25.0,25.0,83,0.00,,,0.05,Wunderground v.1.15,2014-01-14 22:10:00,
2014-01-14 16:15:00,22.8,18.4,29.94,NW,305,25.0,27.0,83,0.00,,,0.05,Wunderground v.1.15,2014-01-14 22:15:00,
2014-01-14 16:20:00,22.7,18.3,29.95,NW,314,25.0,25.0,83,0.00,,,0.05,Wunderground v.1.15,2014-01-14 22:20:00,
2014-01-14 16:25:00,22.5,18.4,29.95,NW,304,25.0,25.0,84,0.00,,,0.05,Wunderground v.1.15,2014-01-14 22:25:00,
2014-01-14 16:35:00,22.4,18.3,29.96,WNW,302,25.0,29.0,84,0.00,,,0.05,Wunderground v.1.15,2014-01-14 22:35:00,
2014-01-14 16:40:00,22.4,18.0,29.96,NNW,327,24.0,24.0,83,0.00,,,0.05,Wunderground v.1.15,2014-01-14 22:40:00,
2014-01-14 16:45:00,22.2,18.1,29.96,NW,316,24.0,24.0,84,0.00,,,0.05,Wunderground v.1.15,2014-01-14 22:45:00,
2014-01-14 16:50:00,22.1,18.3,29.97,NW,304,23.0,23.0,85,0.00,,,0.05,Wunderground v.1.15,2014-01-14 22:50:00,
2014-01-14 16:55:00,22.1,18.3,29.97,NW,310,21.0,24.0,85,0.00,,,0.05,Wunderground v.1.15,2014-01-14 22:55:00,
2014-01-14 17:00:00,21.9,18.4,29.97,NW,307,21.0,24.0,86,0.00,,,0.05,Wunderground v.1.15,2014-01-14 23:00:00,
2014-01-14 17:10:00,21.7,18.4,29.97,WNW,299,22.0,26.0,87,0.00,,,0.05,Wunderground v.1.15,2014-01-14 23:10:00,
2014-01-14 17:15:00,21.5,18.0,29.98,NW,311,23.0,26.0,86,0.00,,,0.05,Wunderground v.1.15,2014-01-14 23:15:00,
2014-01-14 17:20:00,21.4,18.1,29.98,WNW,301,20.0,20.0,87,0.00,,,0.05,Wunderground v.1.15,2014-01-14 23:20:00,
2014-01-14 17:25:00,21.1,17.8,29.98,WNW,296,20.0,22.0,87,0.00,,,0.05,Wunderground v.1.15,2014-01-14 23:25:00,
2014-01-14 17:30:00,20.9,17.1,29.98,NW,316,24.0,25.0,85,0.00,,,0.05,Wunderground v.1.15,2014-01-14 23:30:00,
2014-01-14 17:40:00,20.7,16.4,29.99,NW,315,24.0,26.0,83,0.00,,,0.05,Wunderground v.1.15,2014-01-14 23:40:00,
2014-01-14 17:45:00,20.6,16.3,29.99,NW,307,25.0,28.0,83,0.00,,,0.05,Wunderground v.1.15,2014-01-14 23:45:00,
2014-01-14 17:50:00,20.5,15.9,29.99,NW,306,26.0,28.0,82,0.00,,,0.05,Wunderground v.1.15,2014-01-14 23:50:00,
2014-01-14 17:55:00,20.5,15.9,29.99,NW,310,26.0,28.0,82,0.00,,,0.05,Wunderground v.1.15,2014-01-14 23:55:00,
2014-01-14 18:00:00,20.3,15.4,30.00,NW,314,26.0,26.0,81,0.00,,,0.05,Wunderground v.1.15,2014-01-15 00:00:00,
2014-01-14 18:05:00,20.3,15.7,30.00,NW,317,24.0,26.0,82,0.00,,,0.05,Wunderground v.1.15,2014-01-15 00:05:00,
2014-01-14 18:15:00,19.9,15.0,30.00,NW,310,24.0,26.0,81,0.00,,,0.05,Wunderground v.1.15,2014-01-15 00:15:00,
2014-01-14 18:20:00,19.8,14.9,30.01,NW,313,26.0,27.0,81,0.00,,,0.05,Wunderground v.1.15,2014-01-15 00:20:00,
2014-01-14 18:25:00,19.7,14.8,30.01,NW,312,25.0,27.0,81,0.00,,,0.05,Wunderground v.1.15,2014-01-15 00:25:00,
2014-01-14 18:30:00,19.6,14.7,30.01,NW,318,24.0,24.0,81,0.00,,,0.05,Wunderground v.1.15,2014-01-15 00:30:00,
2014-01-14 18:35:00,19.5,14.6,30.02,NW,314,24.0,24.0,81,0.00,,,0.05,Wunderground v.1.15,2014-01-15 00:35:00,
2014-01-14 18:45:00,19.4,14.8,30.02,NW,310,20.0,24.0,82,0.00,,,0.05,Wunderground v.1.15,2014-01-15 00:45:00,
2014-01-14 18:50:00,19.3,15.0,30.02,NW,312,18.0,24.0,83,0.00,,,0.05,Wunderground v.1.15,2014-01-15 00:50:00,
2014-01-14 18:55:00,19.3,15.0,30.02,NW,313,18.0,24.0,83,0.00,,,0.05,Wunderground v.1.15,2014-01-15 00:55:00,
2014-01-14 19:00:00,19.2,14.6,30.02,NW,315,21.0,24.0,82,0.00,,,0.05,Wunderground v.1.15,2014-01-15 01:00:00,
2014-01-14 19:05:00,19.1,14.8,30.03,NW,311,21.0,24.0,83,0.00,,,0.05,Wunderground v.1.15,2014-01-15 01:05:00,
2014-01-14 19:10:00,19.0,14.7,30.03,NW,309,21.0,24.0,83,0.00,,,0.05,Wunderground v.1.15,2014-01-15 01:10:00,
2014-01-14 19:20:00,18.9,14.6,30.03,NW,308,21.0,21.0,83,0.00,,,0.05,Wunderground v.1.15,2014-01-15 01:20:00,
2014-01-14 19:25:00,18.8,14.5,30.03,NW,311,21.0,24.0,83,0.00,,,0.05,Wunderground v.1.15,2014-01-15 01:25:00,
2014-01-14 19:30:00,18.7,13.8,30.04,NW,320,21.0,21.0,81,0.00,,,0.05,Wunderground v.1.15,2014-01-15 01:30:00,
2014-01-14 19:35:00,18.5,13.6,30.04,NW,315,21.0,26.0,81,0.00,,,0.05,Wunderground v.1.15,2014-01-15 01:35:00,
2014-01-14 19:40:00,18.4,13.5,30.04,NW,316,21.0,21.0,81,0.00,,,0.05,Wunderground v.1.15,2014-01-15 01:40:00,
2014-01-14 19:49:00,18.1,13.3,30.04,NW,311,20.0,24.0,81,0.00,,,0.05,Wunderground v.1.15,2014-01-15 01:49:00,
2014-01-14 19:55:00,18.1,13.5,30.05,NNW,328,20.0,24.0,82,0.00,,,0.05,Wunderground v.1.15,2014-01-15 01:55:00,
2014-01-14 20:00:00,18.0,13.2,30.05,NW,319,19.0,24.0,81,0.00,,,0.05,Wunderground v.1.15,2014-01-15 02:00:00,
2014-01-14 20:05:00,17.9,13.3,30.05,NW,309,19.0,24.0,82,0.00,,,0.05,Wunderground v.1.15,2014-01-15 02:05:00,
2014-01-14 20:10:00,17.7,13.1,30.05,NW,320,19.0,26.0,82,0.00,,,0.05,Wunderground v.1.15,2014-01-15 02:10:00,
2014-01-14 20:15:00,17.4,12.6,30.05,NW,321,22.0,26.0,81,0.00,,,0.05,Wunderground v.1.15,2014-01-15 02:15:00,
2014-01-14 20:24:00,17.1,12.3,30.05,NW,325,22.0,26.0,81,0.00,,,0.05,Wunderground v.1.15,2014-01-15 02:24:00,
2014-01-14 20:29:00,17.0,12.2,30.06,NW,312,21.0,24.0,81,0.00,,,0.05,Wunderground v.1.15,2014-01-15 02:29:00,
2014-01-14 20:35:00,16.9,12.1,30.06,NW,307,20.0,24.0,81,0.00,,,0.05,Wunderground v.1.15,2014-01-15 02:35:00,
2014-01-14 20:40:00,16.7,11.9,30.06,NW,312,21.0,24.0,81,0.00,,,0.05,Wunderground v.1.15,2014-01-15 02:40:00,
2014-01-14 20:45:00,16.6,11.8,30.06,NW,312,21.0,24.0,81,0.00,,,0.05,Wunderground v.1.15,2014-01-15 02:45:00,
2014-01-14 20:50:00,16.4,11.6,30.06,NW,322,21.0,21.0,81,0.00,,,0.05,Wunderground v.1.15,2014-01-15 02:50:00,
2014-01-14 20:55:00,16.2,11.7,30.06,NW,320,20.0,24.0,82,0.00,,,0.05,Wunderground v.1.15,2014-01-15 02:55:00,
2014-01-14 21:00:00,16.1,11.6,30.06,NW,311,19.0,24.0,82,0.00,,,0.05,Wunderground v.1.15,2014-01-15 03:00:00,
2014-01-14 21:05:00,16.0,11.5,30.06,NW,314,19.0,24.0,82,0.00,,,0.05,Wunderground v.1.15,2014-01-15 03:05:00,
2014-01-14 21:10:00,15.8,11.3,30.07,NW,315,19.0,24.0,82,0.00,,,0.05,Wunderground v.1.15,2014-01-15 03:10:00,
2014-01-14 21:19:00,15.6,11.1,30.07,NW,318,17.0,24.0,82,0.00,,,0.05,Wunderground v.1.15,2014-01-15 03:19:00,
2014-01-14 21:25:00,15.4,11.2,30.07,NW,311,16.0,24.0,83,0.00,,,0.05,Wunderground v.1.15,2014-01-15 03:25:00,
2014-01-14 21:30:00,15.2,11.0,30.08,NW,311,15.0,24.0,83,0.00,,,0.05,Wunderground v.1.15,2014-01-15 03:30:00,
2014-01-14 21:40:00,15.1,10.9,30.08,WNW,297,15.0,24.0,83,0.00,,,0.05,Wunderground v.1.15,2014-01-15 03:40:00,
2014-01-14 21:45:00,15.0,10.8,30.08,NW,316,16.0,24.0,83,0.00,,,0.05,Wunderground v.1.15,2014-01-15 03:45:00,
2014-01-14 21:50:00,14.9,10.7,30.08,NW,312,16.0,16.0,83,0.00,,,0.05,Wunderground v.1.15,2014-01-15 03:50:00,
2014-01-14 22:00:00,14.7,10.7,30.08,WNW,301,14.0,24.0,84,0.00,,,0.05,Wunderground v.1.15,2014-01-15 04:00:00,
2014-01-14 22:05:00,14.5,10.5,30.08,NW,310,15.0,24.0,84,0.00,,,0.05,Wunderground v.1.15,2014-01-15 04:05:00,
2014-01-14 22:10:00,14.4,10.4,30.08,NW,317,15.0,24.0,84,0.00,,,0.05,Wunderground v.1.15,2014-01-15 04:10:00,
2014-01-14 22:15:00,14.2,10.0,30.09,NW,318,16.0,24.0,83,0.00,,,0.05,Wunderground v.1.15,2014-01-15 04:15:00,
2014-01-14 22:20:00,14.1,9.9,30.09,NW,326,15.0,24.0,83,0.00,,,0.05,Wunderground v.1.15,2014-01-15 04:20:00,
2014-01-14 22:30:00,14.0,9.8,30.09,NW,309,15.0,24.0,83,0.00,,,0.05,Wunderground v.1.15,2014-01-15 04:30:00,
2014-01-14 22:35:00,13.9,9.7,30.09,NW,318,15.0,24.0,83,0.00,,,0.05,Wunderground v.1.15,2014-01-15 04:35:00,
2014-01-14 22:40:00,13.8,9.9,30.09,NW,311,15.0,24.0,84,0.00,,,0.05,Wunderground v.1.15,2014-01-15 04:40:00,
2014-01-14 22:45:00,13.7,9.8,30.09,NW,308,15.0,24.0,84,0.00,,,0.05,Wunderground v.1.15,2014-01-15 04:45:00,
2014-01-14 22:50:00,13.6,9.4,30.09,NW,322,16.0,24.0,83,0.00,,,0.05,Wunderground v.1.15,2014-01-15 04:50:00,
2014-01-14 22:55:00,13.5,9.6,30.09,NW,318,17.0,24.0,84,0.00,,,0.05,Wunderground v.1.15,2014-01-15 04:55:00,
2014-01-14 23:05:00,13.3,9.4,30.09,NW,312,17.0,24.0,84,0.00,,,0.05,Wunderground v.1.15,2014-01-15 05:05:00,
2014-01-14 23:10:00,13.3,9.4,30.09,NW,307,15.0,24.0,84,0.00,,,0.05,Wunderground v.1.15,2014-01-15 05:10:00,
2014-01-14 23:15:00,13.2,9.3,30.10,NW,310,16.0,24.0,84,0.00,,,0.05,Wunderground v.1.15,2014-01-15 05:15:00,
2014-01-14 23:20:00,13.2,9.0,30.10,NW,320,16.0,24.0,83,0.00,,,0.05,Wunderground v.1.15,2014-01-15 05:20:00,
2014-01-14 23:25:00,13.1,9.2,30.09,NW,326,16.0,24.0,84,0.00,,,0.05,Wunderground v.1.15,2014-01-15 05:25:00,
2014-01-14 23:35:00,13.0,8.8,30.10,NW,321,17.0,24.0,83,0.00,,,0.05,Wunderground v.1.15,2014-01-15 05:35:00,
2014-01-14 23:40:00,12.8,8.6,30.10,NW,310,16.0,16.0,83,0.00,,,0.05,Wunderground v.1.15,2014-01-15 05:40:00,
2014-01-14 23:45:00,12.8,8.6,30.10,NW,312,16.0,24.0,83,0.00,,,0.05,Wunderground v.1.15,2014-01-15 05:45:00,
2014-01-14 23:50:00,12.7,8.5,30.09,NW,321,16.0,24.0,83,0.00,,,0.05,Wunderground v.1.15,2014-01-15 05:50:00,
2014-01-14 23:55:00,12.5,8.6,30.10,NW,320,15.0,24.0,84,0.00,,,0.05,Wunderground v.1.15,2014-01-15 05:55:00,